This demonstration page uses our WeatherBlox Daily Observations layout. Learn more.

Hourly Observations for November 22, 2019

Temp ( °F °C ) Dew Point ( °F °C ) Humidity (%) Winds ( mph kmh ) Pressure ( in mb ) Visibility ( mi km ) Precip ( " mm )
12:15 am 00:15 Cloudy 29 -1.6 24 -4.2 83 83 NNE 10 17 30.33 1027 10 16.0934 0 0
12:35 am 00:35 Mostly Cloudy 29 -1.8 24 -4.5 82 82 N 8 13 30.33 1027 10 16.0934 0 0
12:55 am 00:55 Mostly Cloudy 29 -1.9 23 -4.8 81 81 N 6 9 30.35 1028 10 16.0934 0 0
1:15 am 01:15 Cloudy 29 -1.8 24 -4.7 81 81 N 5 7 30.35 1028 10 16.0934 0 0
1:35 am 01:35 Cloudy 28 -2 23 -5.2 79 79 NNE 9 15 30.33 1027 10 16.0934 0 0
1:55 am 01:55 Cloudy 28 -2 23 -5.2 79 79 NNE 8 13 30.35 1028 10 16.0934 0 0
2:15 am 02:15 Cloudy 28 -2 22 -5.3 78 78 NNE 5 7 30.37 1028 10 16.0934 0 0
2:35 am 02:35 Cloudy 29 -1.9 23 -5.2 78 78 NNE 8 13 30.35 1028 10 16.0934 0 0
2:55 am 02:55 Cloudy 28 -2 23 -5.2 79 79 NNE 9 15 30.35 1028 10 16.0934 0 0
3:15 am 03:15 Cloudy 28 -2 23 -5.2 79 79 N 7 11 30.36 1028 10 16.0934 0 0
3:35 am 03:35 Cloudy 28 -2 23 -5.1 80 80 N 6 9 30.36 1028 10 16.0934 0 0
3:55 am 03:55 Cloudy 28 -2.1 22 -5.5 78 78 N 6 9 30.35 1028 10 16.0934 0 0
4:15 am 04:15 Cloudy 28 -2.1 23 -5.2 80 80 N 7 11 30.34 1027 10 16.0934 0 0
4:35 am 04:35 Cloudy 28 -2.1 22 -5.4 78 78 N 7 11 30.33 1027 10 16.0934 0 0
4:55 am 04:55 Cloudy 28 -2.2 22 -5.4 79 79 N 7 11 30.33 1027 10 16.0934 0 0
5:15 am 05:15 Cloudy 28 -2.2 23 -5.1 81 81 N 5 7 30.33 1027 10 16.0934 0 0
5:35 am 05:35 Cloudy 28 -2.3 22 -5.4 80 80 N 7 11 30.32 1027 10 16.0934 0 0
5:55 am 05:55 Cloudy 28 -2.3 22 -5.5 79 79 N 6 9 30.32 1027 10 16.0934 0 0
6:15 am 06:15 Cloudy 28 -2.1 23 -5 81 81 N 6 9 30.32 1027 10 16.0934 0 0
6:35 am 06:35 Cloudy 28 -2.3 23 -5 82 82 N 3 6 30.32 1027 10 16.0934 0 0
6:55 am 06:55 Cloudy 28 -2.3 23 -5 82 82 N 5 7 30.33 1027 10 16.0934 0 0
7:15 am 07:15 Cloudy 28 -2.3 23 -5.1 81 81 N 6 9 30.34 1027 10 16.0934 0 0
7:35 am 07:35 Cloudy 28 -2.3 23 -5 82 82 Calm 30.34 1027 10 16.0934 0 0
7:55 am 07:55 Cloudy 28 -2.3 22 -5.5 79 79 NNE 3 6 30.35 1028 10 16.0934 0 0
8:15 am 08:15 Cloudy 28 -2.2 23 -5 81 81 Calm 30.35 1028 10 16.0934 0 0
8:35 am 08:35 Cloudy 28 -2.1 23 -5.1 80 80 Calm 30.36 1028 10 16.0934 0 0
8:55 am 08:55 Cloudy 28 -2 22 -5.5 77 77 Calm 30.36 1028 10 16.0934 0 0
9:15 am 09:15 Cloudy 29 -1.7 22 -5.4 76 76 Calm 30.35 1028 10 16.0934 0 0
9:35 am 09:35 Cloudy 29 -1.6 22 -5.5 75 75 Calm 30.34 1027 10 16.0934 0 0
9:55 am 09:55 Cloudy 29 -1.6 22 -5.4 76 76 Calm 30.34 1027 10 16.0934 0 0
10:15 am 10:15 Cloudy 30 -1.3 22 -5.5 73 73 Calm 30.34 1027 10 16.0934 0 0
10:35 am 10:35 Cloudy 30 -1.1 22 -5.3 73 73 Calm 30.33 1027 10 16.0934 0 0
10:55 am 10:55 Cloudy 30 -0.9 23 -5.1 73 73 Calm 30.32 1027 10 16.0934 0 0
11:15 am 11:15 Cloudy 31 -0.6 23 -5 72 72 Calm 30.31 1026 10 16.0934 0 0
11:35 am 11:35 Cloudy 31 -0.6 22 -5.3 71 71 W 5 7 30.3 1026 10 16.0934 0 0
11:55 am 11:55 Cloudy 32 -0.1 23 -5.2 69 69 W 5 7 30.29 1026 10 16.0934 0 0
12:15 pm 12:15 Cloudy 32 0 22 -5.7 66 66 WSW 3 6 30.28 1025 10 16.0934 0 0
12:35 pm 12:35 Cloudy 33 0.4 23 -4.9 68 68 SSW 5 7 30.26 1025 10 16.0934 0 0
12:55 pm 12:55 Cloudy 33 0.8 23 -4.9 66 66 SSW 3 6 30.25 1024 10 16.0934 0 0
1:15 pm 13:15 Cloudy 34 1.1 23 -4.9 65 65 SW 5 7 30.23 1024 10 16.0934 0 0
1:35 pm 13:35 Cloudy 33 0.6 26 -3.6 74 74 SW 7 11 30.23 1024 10 16.0934 0 0
1:55 pm 13:55 Cloudy 33 0.3 26 -3.1 78 78 SW 10 17 30.22 1023 10 16.0934 0 0
2:15 pm 14:15 Cloudy 32 0 26 -3.3 79 79 SW 10 17 30.22 1023 10 16.0934 0 0
2:35 pm 14:35 Cloudy 32 0 24 -4.3 73 73 SW 9 15 30.22 1023 10 16.0934 0 0
2:55 pm 14:55 Cloudy with Light Snow 31 -0.5 26 -3.5 80 80 SW 8 13 30.21 1023 7 11.26538 0 0
3:15 pm 15:15 Cloudy with Light Snow 30 -1 27 -2.9 87 87 SW 8 13 30.2 1023 3 4.82802 0 0
3:35 pm 15:35 Cloudy with Light Snow 30 -0.9 28 -2.1 92 92 SW 5 7 30.2 1023 4 6.43736 0 0
3:55 pm 15:55 Cloudy with Light Snow 31 -0.8 28 -2 92 92 SW 5 7 30.2 1023 5 8.0467 0 0
4:15 pm 16:15 Cloudy 31 -0.7 28 -2.1 90 90 SW 5 7 30.2 1023 10 16.0934 0 0
4:35 pm 16:35 Cloudy 31 -0.6 28 -2.2 89 89 WSW 5 7 30.19 1022 10 16.0934 0 0
4:55 pm 16:55 Cloudy 31 -0.5 28 -2.2 88 88 WSW 3 6 30.19 1022 10 16.0934 0 0
5:15 pm 17:15 Cloudy 31 -0.5 28 -2.2 88 88 WSW 3 6 30.18 1022 10 16.0934 0 0
5:35 pm 17:35 Cloudy 31 -0.5 28 -2 90 90 WSW 3 6 30.19 1022 10 16.0934 0 0
5:55 pm 17:55 Cloudy 31 -0.6 29 -1.9 91 91 Calm 30.19 1022 10 16.0934 0 0
6:15 pm 18:15 Cloudy 31 -0.7 29 -1.8 92 92 Calm 30.19 1022 10 16.0934 0 0
6:35 pm 18:35 Cloudy 31 -0.6 29 -1.7 92 92 Calm 30.18 1022 10 16.0934 0 0
6:55 pm 18:55 Cloudy 31 -0.7 29 -1.7 93 93 Calm 30.17 1022 10 16.0934 0 0
7:15 pm 19:15 Cloudy 31 -0.6 29 -1.5 94 94 Calm 30.17 1022 10 16.0934 0 0
7:35 pm 19:35 Cloudy 31 -0.6 29 -1.5 94 94 SW 3 6 30.17 1022 10 16.0934 0 0
7:55 pm 19:55 Cloudy 31 -0.6 29 -1.5 94 94 Calm 30.17 1022 10 16.0934 0 0
8:15 pm 20:15 Cloudy 31 -0.7 29 -1.5 94 94 SW 6 9 30.15 1021 10 16.0934 0 0
8:35 pm 20:35 Cloudy 30 -1 29 -1.6 96 96 WSW 5 7 30.16 1021 10 16.0934 0 0
8:55 pm 20:55 Cloudy 30 -1.1 29 -1.6 96 96 WSW 5 7 30.16 1021 10 16.0934 0 0
9:15 pm 21:15 Cloudy 30 -1.1 29 -1.6 96 96 WSW 3 6 30.16 1021 10 16.0934 0 0
9:35 pm 21:35 Cloudy 30 -1.1 29 -1.7 96 96 SW 5 7 30.16 1021 10 16.0934 0 0
9:55 pm 21:55 Cloudy 30 -1.2 28 -2 94 94 SW 3 6 30.15 1021 10 16.0934 0 0
10:15 pm 22:15 Cloudy 29 -1.5 28 -2.1 96 96 SW 3 6 30.15 1021 10 16.0934 0 0
10:35 pm 22:35 Mostly Cloudy 28 -2 28 -2.4 97 97 SSW 5 7 30.13 1020 10 16.0934 0 0
10:55 pm 22:55 Partly Cloudy 28 -2 28 -2.5 96 96 SSW 3 6 30.13 1020 10 16.0934 0 0
11:15 pm 23:15 Mostly Cloudy 28 -2.3 27 -2.6 98 98 SSW 6 9 30.13 1020 10 16.0934 0 0
11:35 pm 23:35 Mostly Cloudy 27 -2.7 27 -3 98 98 SW 7 11 30.12 1020 10 16.0934 0 0
11:55 pm 23:55 Partly Cloudy 27 -2.7 27 -3 98 98 Calm 30.12 1020 10 16.0934 0 0

Powered by AerisWeather